Hauptseite
METAR-TAF:

METAR-TAF

Flughäfen :

Glücksburg, Deutschland

Meierwik

Breite: 54-50N, Länge: 009-30E, Höhe: 27 m

Beobachtung

Neuester Wetterbericht von vor 26 Minuten, um 13:20 UTC
Wind 9 kt aus Ost/Südost, Böen bis zu 22 kt
Temperatur 1°C
Luftfeuchtigkeit 55%
Luftdruck 1034 hPa
Sichtweite 10 km oder mehr
Aufgelockert bewölkt in der Höhe von 2900 ft

METAR: ETGG 241320Z 11009G22KT 9999 SCT029 01/M07 Q1034 BLU+

Zeit: 14:46 (13:46 UTC)


TAF: fehlend

Wetterbeobachtungen und Prognosen von mehr als 4000 Flughäfen (METAR und TAF Bericht).

Die verfügbaren Stationen werden durch gelbe und rote Markierungen auf der Karte dargestellt.

Führen Sie die Maus auf sie, um den Namen der Station zu sehen.

Darauf klicken, um die Beobachtung von Wetterbeobachtungen und Prognosen zu sehen.

Um die Karte zu ändern : klicken Sie auf den grünen Tasten mit einem schwarzen Kreuz Zum Vergrößern, auf den grünen Button mit einem Gedankenstrich zu verkleinern, oder auf die grünen Pfeile für benachbarte Karten.


METAR-TAF: